Location: Newark
(48.7500°N, 7.4667°E)
Time: 02:23:41
(UTC+00:00)

ISS - Visible Passes

Search period start: 18 July 2019 00:00
Search period end: 28 July 2019 00:00
Orbit: 409 x 418 km, 51.6° (Epoch: 18 July)

Date Brightness Start Highest point End Pass type
(mag) Time Alt. Az. Time Alt. Az. Time Alt. Az.
18 Jul -3.7 01:06:40 10° WNW 01:10:00 77° NNE 01:13:20 10° ESE visible
18 Jul -2.8 02:43:37 10° W 02:46:28 26° SW 02:49:18 10° SSE visible
18 Jul -3.8 21:03:37 10° SW 21:06:56 62° SSE 21:10:14 10° ENE visible
18 Jul -3.0 22:40:25 10° W 22:43:41 52° N 22:46:58 10° ENE visible
19 Jul -3.3 00:17:21 10° WNW 00:20:40 61° NNE 00:23:57 10° E visible
19 Jul -3.4 01:54:08 10° WNW 01:57:17 40° SSW 02:00:24 10° SE visible
19 Jul -3.4 20:14:31 10° SW 20:17:41 41° SSE 20:20:51 10° ENE visible
19 Jul -3.3 21:51:00 10° W 21:54:18 61° NNW 21:57:37 10° ENE visible
19 Jul -3.0 23:28:00 10° WNW 23:31:17 52° N 23:34:33 10° E visible
20 Jul -3.9 01:04:45 10° WNW 01:08:02 60° SSW 01:09:03 38° SE visible
20 Jul-1.502:45:51SSW02:45:51SSW02:41:09Wvisible
20 Jul -3.6 21:01:36 10° WSW 21:04:57 76° NNW 21:08:18 10° ENE visible
20 Jul -2.9 22:38:36 10° WNW 22:41:53 49° N 22:45:07 10° E visible
21 Jul -3.3 00:15:23 10° WNW 00:17:58 50° WNW 00:17:58 50° WNW visible
21 Jul -3.8 20:12:15 10° WSW 20:15:36 81° SSE 20:18:56 10° ENE visible
21 Jul -2.9 21:49:11 10° W 21:52:27 49° N 21:55:43 10° ENE visible
21 Jul -3.6 23:26:02 10° WNW 23:29:20 72° N 23:29:20 72° N visible
22 Jul -3.0 20:59:43 10° W 21:03:01 54° N 21:06:19 10° ENE visible
22 Jul -3.3 22:36:41 10° WNW 22:39:59 58° NNE 22:41:06 35° ENE visible
23 Jul -1.2 00:13:27 10° WNW 00:13:53 13° WNW 00:13:53 13° WNW visible
23 Jul -3.3 20:10:16 10° W 20:13:36 64° NNW 20:16:56 10° ENE visible
23 Jul -3.0 21:47:17 10° WNW 21:50:33 51° N 21:53:01 16° E visible
23 Jul -2.3 23:24:02 10° WNW 23:25:49 29° W 23:25:49 29° W visible
24 Jul -2.9 20:57:50 10° WNW 21:01:07 49° N 21:04:21 10° ENE visible
24 Jul -3.8 22:34:38 10° WNW 22:37:50 80° NW 22:37:50 80° NW visible
25 Jul -2.9 20:08:21 10° W 20:11:37 50° N 20:14:54 10° ENE visible
25 Jul -3.5 21:45:15 10° WNW 21:48:35 67° NNE 21:49:53 33° E visible
25 Jul -1.3 23:22:05 10° W 23:22:41 14° W 23:22:41 14° W visible
26 Jul -3.2 20:55:49 10° WNW 20:59:08 56° N 21:01:59 13° E visible
26 Jul -2.7 22:32:35 10° WNW 22:34:47 35° W 22:34:47 35° W visible
27 Jul -2.9 20:06:22 10° WNW 20:09:39 50° N 20:12:55 10° E visible
27 Jul -3.9 21:43:07 10° WNW 21:46:28 75° SSW 21:46:55 61° SE visible
